Binghamton, NY

11:42 PM EST on December 12, 2019 (GMT -0500)
Binghamton Regional-Link

Weather History for KBGM - May, 2019

Change the Weather History Date:

Friday, May 10, 2019

  Actual Average Record
Temperature  
Mean Temperature 61 °F 54 °F  
Max Temperature 74 °F 64 °F 84 °F (1953)
Min Temperature 48 °F 44 °F 25 °F (1966)
Degree Days  
Heating Degree Days 4 11  
Month to date heating degree days 93 128  
Since 1 July heating degree days 6883 6927  
Cooling Degree Days 0 0  
Month to date cooling degree days 0 0  
Year to date cooling degree days 0 4  
Growing Degree Days 12 (Base 50)    
Moisture  
Dew Point 53 °F    
Average Humidity 83    
Maximum Humidity 100    
Minimum Humidity 66    
Precipitation  
Precipitation 0.50 in 0.11 in 1.55 in (1998)
Month to date precipitation 1.76 1.09  
Year to date precipitation 13.24 12.27  
Snow  
Snow 0.00 in 0.00 in T in (2000)
Month to date snowfall 0.0 0.1  
Since 1 July snowfall 81.4 83.4  
Snow Depth 0.00 in    
Sea Level Pressure  
Sea Level Pressure 29.95 in    
Wind  
Wind Speed 12 mph (SW)    
Max Wind Speed 22 mph    
Max Gust Speed 30 mph    
Visibility 8 miles    
Events Rain    
T = Trace of Precipitation, MM = Missing Value Source: NWS Daily Summary

Daily Weather History Graph

Daily Weather History Graph

Search for Another Location

Airport or City:

Astronomy

May. 10, 2019 Rise Set
Actual Time 5:48 AM EDT 8:12 PM EDT
Civil Twilight 5:17 AM EDT 8:44 PM EDT
Nautical Twilight 4:38 AM EDT 9:23 PM EDT
Astronomical Twilight 3:54 AM EDT 10:07 PM EDT
Moon 10:44 AM EDT (5/10) 1:05 AM EDT (5/10)
Length of Visible Light 15h 27m
Length of Day
14h 24m
Waxing Crescent, 35% of the Moon is Illuminated
May 10
Waxing Crescent
May 11
First Quarter
May 18
Full
May 26
Last Quarter
Jun 3
New

Hourly Weather History & Observations

Time (EDT) Temp. Dew Point Humidity Pressure Visibility Wind Dir Wind Speed Gust Speed Precip Events Conditions
12:09 AM 50.0 °F 48.0 °F 93% 30.07 in 7.0 mi SSE 16.1 mph - 0.01 in Rain Light Rain
12:53 AM 50.0 °F 48.9 °F 96% 30.06 in 7.0 mi SSE 15.0 mph 23.0 mph 0.05 in Rain Light Rain
1:53 AM 50.0 °F 48.9 °F 96% 30.04 in 4.0 mi SSE 15.0 mph 20.7 mph 0.08 in Rain Light Rain
2:22 AM 51.1 °F 50.0 °F 96% 30.03 in 6.0 mi SSE 11.5 mph 21.9 mph 0.05 in Rain Light Rain
2:53 AM 51.1 °F 50.0 °F 96% 30.03 in 4.0 mi SSE 15.0 mph 23.0 mph 0.10 in Rain Rain
3:53 AM 51.1 °F 50.0 °F 96% 30.00 in 6.0 mi SSE 12.7 mph 21.9 mph 0.10 in Rain Light Rain
4:53 AM 52.0 °F 51.1 °F 97% 29.99 in 4.0 mi South 11.5 mph - 0.03 in Rain Light Rain
5:53 AM 53.1 °F 52.0 °F 96% 29.98 in 5.0 mi South 10.4 mph - 0.09 in Rain Light Rain
6:53 AM 54.0 °F 54.0 °F 100% 29.96 in 8.0 mi South 9.2 mph - 0.05 in Rain Light Rain
7:53 AM 55.9 °F 55.0 °F 97% 29.94 in 10.0 mi South 9.2 mph - 0.01 in   Overcast
8:53 AM 57.0 °F 55.9 °F 96% 29.92 in 7.0 mi South 11.5 mph 18.4 mph 0.00 in Rain Light Rain
9:32 AM 57.9 °F 55.9 °F 93% 29.90 in 2.5 mi South 13.8 mph - 0.00 in Rain Rain
9:53 AM 59.0 °F 57.0 °F 93% 29.90 in 10.0 mi South 16.1 mph 23.0 mph 0.01 in   Overcast
10:14 AM 59.0 °F 57.0 °F 93% 29.90 in 10.0 mi SSW 10.4 mph 21.9 mph N/A   Overcast
10:43 AM 59.0 °F 57.0 °F 93% 29.91 in 8.0 mi SW 10.4 mph 19.6 mph 0.02 in Rain Light Rain
10:53 AM 59.0 °F 57.9 °F 96% 29.92 in 4.0 mi SSW 10.4 mph - 0.03 in Rain Light Rain
11:53 AM 62.1 °F 59.0 °F 90% 29.92 in 10.0 mi SW 13.8 mph 23.0 mph 0.00 in   Overcast
12:00 PM 62.1 °F 59.0 °F 90% 29.91 in 10.0 mi SW 11.5 mph - N/A   Overcast
12:06 PM 63.0 °F 59.0 °F 87% 29.91 in 10.0 mi SW 13.8 mph 24.2 mph N/A   Overcast
12:44 PM 64.9 °F 59.0 °F 81% 29.90 in 10.0 mi SW 13.8 mph 24.2 mph N/A   Overcast
12:53 PM 66.9 °F 60.1 °F 79% 29.89 in 10.0 mi SW 9.2 mph 20.7 mph N/A   Mostly Cloudy
1:46 PM 68.0 °F 59.0 °F 73% 29.89 in 10.0 mi SSW 9.2 mph 20.7 mph N/A   Overcast
1:53 PM 70.0 °F 60.1 °F 71% 29.88 in 10.0 mi SW 16.1 mph 23.0 mph N/A   Mostly Cloudy
2:11 PM 71.1 °F 60.1 °F 68% 29.89 in 10.0 mi WSW 16.1 mph 24.2 mph N/A   Mostly Cloudy
2:53 PM 70.0 °F 57.9 °F 65% 29.87 in 10.0 mi SW 11.5 mph 25.3 mph N/A   Mostly Cloudy
3:53 PM 68.0 °F 57.0 °F 68% 29.87 in 6.0 mi WSW 17.3 mph 29.9 mph 0.00 in Rain Rain
4:53 PM 69.1 °F 57.0 °F 65% 29.87 in 10.0 mi NW 10.4 mph 19.6 mph 0.01 in   Mostly Cloudy
5:53 PM 63.0 °F 57.0 °F 81% 29.91 in 10.0 mi NNW 17.3 mph - N/A   Mostly Cloudy
6:01 PM 62.1 °F 55.9 °F 80% 29.92 in 10.0 mi NNW 17.3 mph - N/A   Overcast
6:48 PM 59.0 °F 51.8 °F 77% 29.95 in 10.0 mi NNW 12.7 mph 21.9 mph N/A   Scattered Clouds
6:53 PM 59.0 °F 51.1 °F 75% 29.95 in 10.0 mi NNW 12.7 mph - N/A   Mostly Cloudy
7:53 PM 55.9 °F 48.0 °F 75% 29.99 in 10.0 mi NNW 12.7 mph 19.6 mph N/A   Overcast
8:53 PM 53.1 °F 46.0 °F 77% 30.01 in 10.0 mi NNW 10.4 mph - N/A   Overcast
9:27 PM 52.0 °F 45.0 °F 77% 30.00 in 10.0 mi NNW 9.2 mph - N/A   Scattered Clouds
9:53 PM 52.0 °F 44.1 °F 74% 30.01 in 10.0 mi NNW 9.2 mph - N/A   Scattered Clouds
10:22 PM 52.0 °F 43.0 °F 71% 30.02 in 10.0 mi WNW 9.2 mph - N/A   Overcast
10:53 PM 51.1 °F 41.0 °F 68% 30.02 in 10.0 mi NW 9.2 mph 20.7 mph N/A   Overcast
11:02 PM 50.0 °F 41.0 °F 71% 30.02 in 10.0 mi NW 10.4 mph 20.7 mph N/A   Overcast
11:53 PM 50.0 °F 41.0 °F 71% 30.02 in 10.0 mi NNW 9.2 mph - N/A   Overcast